Temp
-19 -20 -20 -20 -20 -21 -21 -21 -22 -22 -23 -24 -24 -24 -25 -26 -27 -29 -30 -30 -31 -31 -32 -32 -32 -32 -32 -32 -32 -32 -31 -31 -31 -30 -30 -29 -29 -29
-19 -20 -20 -20 -20 -21 -22 -22 -23 -23 -23 -24 -25 -26 -27 -29 -30 -31 -31 -31 -31 -32 -32 -32 -32 -33 -33 -33 -33 -32 -32 -32 -31 -31 -31 -30 -30 -30
-20 -20 -21 -21 -21 -22 -22 -23 -23 -24 -24 -25 -26 -27 -28 -30 -31 -31 -31 -31 -32 -32 -32 -33 -33 -34 -34 -34 -33 -33 -32 -32 -31 -31 -30 -30 -30 -30
-21 -21 -21 -21 -22 -22 -23 -23 -24 -25 -25 -26 -28 -29 -30 -31 -31 -32 -32 -32 -32 -33 -33 -33 -34 -34 -34 -33 -33 -32 -32 -31 -31 -31 -30 -30 -30 -29
-21 -21 -21 -21 -21 -23 -24 -24 -25 -25 -26 -28 -29 -30 -31 -32 -32 -32 -32 -33 -33 -33 -33 -34 -34 -34 -34 -33 -33 -32 -31 -31 -31 -31 -31 -31 -31 -31
-22 -21 -21 -22 -22 -24 -24 -25 -25 -26 -28 -29 -30 -31 -32 -32 -32 -32 -32 -33 -33 -34 -34 -34 -34 -34 -34 -33 -32 -32 -31 -31 -31 -31 -32 -32 -32 -32
-22 -22 -22 -23 -24 -24 -25 -25 -26 -28 -29 -31 -31 -32 -32 -32 -32 -32 -33 -33 -34 -34 -34 -35 -35 -34 -34 -33 -33 -32 -32 -32 -32 -32 -32 -32 -32 -32
-22 -23 -23 -24 -24 -25 -25 -26 -27 -30 -31 -31 -32 -32 -32 -32 -32 -33 -33 -34 -34 -35 -35 -35 -35 -35 -34 -33 -33 -32 -32 -33 -33 -33 -33 -32 -32 -32
-22 -23 -24 -24 -25 -25 -26 -27 -29 -30 -31 -32 -32 -32 -32 -33 -33 -33 -34 -34 -34 -35 -35 -35 -35 -35 -34 -34 -33 -33 -33 -33 -33 -33 -33 -32 -32 -32
-23 -23 -24 -25 -26 -26 -27 -28 -30 -31 -32 -32 -32 -33 -33 -33 -33 -34 -34 -34 -35 -35 -35 -35 -35 -35 -35 -34 -33 -33 -33 -33 -33 -33 -33 -32 -32 -32
-24 -24 -25 -26 -26 -27 -29 -30 -31 -32 -32 -32 -33 -33 -34 -34 -34 -34 -34 -35 -35 -35 -35 -35 -35 -35 -35 -34 -34 -33 -33 -34 -34 -33 -33 -33 -32 -32
-24 -25 -25 -26 -27 -29 -30 -31 -31 -32 -33 -33 -33 -34 -34 -35 -35 -35 -35 -35 -35 -35 -35 -35 -36 -35 -35 -35 -34 -34 -34 -34 -34 -33 -33 -33 -33 -33
-25 -25 -26 -27 -28 -30 -30 -31 -32 -33 -33 -34 -35 -35 -35 -35 -35 -35 -35 -35 -35 -35 -36 -36 -36 -36 -35 -35 -35 -34 -34 -34 -34 -34 -34 -34 -34 -34
-25 -26 -27 -28 -29 -30 -31 -31 -33 -33 -34 -35 -36 -36 -36 -36 -36 -35 -35 -36 -35 -35 -36 -36 -36 -36 -36 -36 -35 -35 -35 -34 -34 -34 -35 -35 -36 -36
-26 -27 -28 -30 -30 -31 -31 -32 -33 -33 -36 -36 -37 -36 -37 -36 -36 -36 -36 -36 -36 -36 -35 -36 -36 -36 -36 -36 -36 -35 -35 -34 -35 -35 -36 -36 -37 -37
-26 -28 -29 -30 -31 -31 -32 -33 -33 -33 -35 -36 -36 -36 -37 -36 -36 -36 -36 -36 -36 -36 -36 -36 -36 -36 -36 -36 -36 -36 -35 -35 -36 -36 -37 -37 -37 -37
-27 -29 -30 -31 -32 -32 -33 -33 -33 -33 -35 -36 -36 -36 -36 -36 -36 -36 -36 -36 -36 -36 -36 -36 -36 -36 -36 -36 -36 -36 -36 -36 -36 -36 -37 -37 -37 -37
-29 -30 -30 -31 -32 -33 -33 -33 -33 -34 -35 -36 -36 -36 -36 -36 -36 -36 -36 -37 -36 -36 -36 -36 -36 -36 -36 -36 -36 -36 -36 -36 -36 -36 -36 -36 -36 -36
-30 -31 -31 -32 -33 -33 -33 -33 -34 -34 -35 -36 -36 -36 -36 -36 -36 -36 -36 -37 -36 -36 -36 -36 -36 -36 -36 -36 -36 -36 -36 -36 -36 -36 -36 -36 -36 -36
-31 -31 -32 -33 -33 -33 -34 -34 -35 -35 -36 -36 -36 -36 -36 -36 -36 -36 -37 -37 -36 -36 -36 -36 -36 -36 -36 -36 -36 -36 -36 -36 -36 -36 -36 -36 -36 -36
-32 -32 -33 -33 -34 -34 -34 -34 -35 -36 -36 -36 -36 -36 -36 -36 -36 -37 -37 -37 -36 -36 -36 -36 -36 -36 -36 -37 -37 -36 -36 -36 -36 -36 -36 -36 -36 -36
-32 -33 -33 -34 -34 -35 -35 -36 -37 -37 -37 -37 -37 -37 -37 -37 -37 -37 -37 -37 -37 -36 -36 -36 -36 -36 -36 -37 -37 -36 -36 -36 -36 -36 -36 -36 -36 -36
-33 -33 -34 -35 -35 -35 -36 -37 -38 -38 -37 -37 -37 -37 -37 -37 -37 -38 -37 -37 -37 -36 -36 -36 -36 -36 -36 -37 -37 -37 -36 -36 -36 -36 -36 -36 -36 -36
Height
5669 5663 5655 5647 5640 5631 5623 5613 5604 5596 5586 5572 5560 5547 5540 5527 5515 5504 5493 5482 5472 5463 5456 5450 5445 5440 5436 5432 5430 5430 5429 5429 5430 5431 5433 5436 5440 5445
5656 5648 5639 5632 5623 5615 5606 5596 5587 5577 5570 5554 5542 5529 5518 5505 5493 5485 5475 5465 5457 5450 5443 5438 5432 5428 5423 5419 5416 5414 5413 5413 5414 5415 5417 5420 5424 5428
5643 5635 5626 5617 5608 5599 5590 5580 5569 5559 5550 5542 5522 5509 5499 5490 5479 5469 5459 5450 5443 5437 5431 5425 5420 5416 5411 5407 5404 5402 5400 5400 5401 5403 5405 5407 5410 5414
5631 5621 5611 5602 5593 5582 5572 5562 5552 5541 5529 5519 5507 5493 5481 5472 5464 5455 5445 5436 5430 5424 5419 5414 5410 5405 5401 5396 5393 5391 5389 5389 5390 5391 5393 5395 5397 5399
5615 5606 5597 5587 5577 5566 5555 5546 5534 5521 5509 5497 5491 5478 5468 5458 5451 5441 5432 5424 5418 5412 5407 5403 5399 5394 5390 5386 5383 5381 5380 5380 5380 5380 5381 5382 5384 5386
5601 5591 5582 5571 5560 5549 5538 5527 5515 5503 5491 5480 5472 5465 5455 5446 5437 5429 5421 5413 5407 5401 5397 5393 5389 5384 5381 5377 5373 5371 5370 5370 5370 5369 5370 5370 5371 5373
5586 5576 5566 5555 5544 5532 5520 5509 5496 5484 5474 5464 5458 5450 5442 5434 5424 5416 5409 5403 5397 5392 5387 5383 5378 5373 5370 5368 5365 5362 5361 5360 5360 5359 5358 5359 5360 5361
5569 5558 5547 5538 5528 5514 5504 5492 5480 5467 5457 5449 5443 5436 5429 5420 5413 5405 5398 5393 5389 5382 5379 5376 5370 5367 5362 5358 5356 5354 5352 5351 5350 5348 5347 5347 5347 5348
5551 5539 5529 5517 5505 5495 5482 5473 5463 5453 5444 5435 5427 5421 5413 5405 5399 5393 5387 5383 5379 5374 5370 5368 5362 5359 5354 5349 5347 5344 5342 5341 5340 5338 5337 5336 5335 5334
5534 5522 5510 5499 5484 5470 5461 5449 5440 5432 5425 5420 5413 5405 5397 5391 5385 5380 5376 5372 5369 5366 5361 5361 5355 5352 5347 5341 5338 5336 5334 5332 5330 5328 5326 5324 5322 5322
5516 5504 5492 5479 5466 5452 5439 5428 5422 5415 5403 5400 5391 5387 5382 5377 5372 5368 5365 5362 5360 5357 5353 5351 5347 5344 5340 5333 5329 5327 5325 5323 5321 5318 5316 5313 5311 5311
5500 5487 5472 5459 5449 5429 5418 5409 5402 5397 5384 5379 5378 5372 5366 5363 5360 5357 5354 5352 5350 5349 5344 5343 5340 5336 5334 5327 5320 5318 5317 5315 5313 5309 5306 5304 5301 5299
5476 5465 5451 5435 5424 5414 5399 5390 5384 5376 5368 5364 5359 5356 5353 5350 5349 5348 5345 5343 5342 5340 5337 5334 5332 5328 5324 5321 5314 5310 5309 5307 5304 5299 5297 5294 5292 5289
5452 5441 5428 5414 5401 5392 5381 5373 5365 5358 5354 5349 5348 5345 5341 5339 5338 5337 5335 5334 5333 5332 5329 5326 5324 5320 5317 5314 5308 5304 5302 5300 5296 5292 5290 5287 5285 5283
5427 5415 5403 5392 5380 5371 5362 5355 5350 5344 5340 5337 5336 5334 5332 5329 5328 5327 5326 5325 5325 5323 5322 5319 5316 5313 5309 5307 5303 5298 5296 5292 5289 5286 5284 5282 5281 5279
5409 5396 5383 5372 5362 5354 5347 5342 5337 5332 5328 5326 5324 5323 5321 5319 5318 5318 5317 5317 5317 5315 5314 5312 5310 5307 5303 5300 5297 5293 5290 5286 5283 5282 5280 5278 5278 5277
5388 5376 5365 5353 5346 5339 5334 5329 5324 5320 5317 5315 5313 5312 5310 5309 5309 5309 5309 5309 5309 5307 5305 5304 5302 5301 5297 5294 5290 5288 5284 5281 5279 5277 5276 5275 5275 5274
5366 5355 5345 5336 5329 5325 5321 5316 5312 5308 5306 5304 5303 5301 5300 5300 5300 5300 5301 5301 5301 5300 5299 5297 5295 5293 5292 5289 5285 5282 5279 5277 5275 5273 5272 5272 5272 5272
5348 5337 5328 5320 5316 5311 5307 5304 5300 5297 5295 5294 5292 5292 5291 5291 5292 5292 5293 5294 5294 5293 5292 5291 5289 5287 5285 5283 5281 5277 5275 5272 5270 5269 5268 5268 5268 5269
5329 5320 5313 5306 5302 5298 5294 5290 5288 5286 5285 5284 5283 5282 5282 5283 5284 5285 5286 5287 5287 5286 5286 5285 5283 5282 5280 5278 5276 5274 5271 5268 5266 5265 5264 5264 5265 5266
5316 5306 5298 5293 5288 5284 5280 5277 5276 5275 5274 5273 5273 5273 5274 5275 5276 5278 5279 5280 5280 5280 5279 5279 5278 5277 5276 5274 5272 5270 5267 5265 5263 5261 5260 5260 5261 5261
5300 5292 5285 5278 5274 5270 5267 5265 5264 5264 5263 5263 5264 5264 5266 5268 5269 5271 5272 5274 5274 5273 5273 5273 5272 5272 5271 5270 5268 5267 5264 5262 5259 5257 5256 5256 5256 5257
5285 5276 5269 5264 5259 5256 5253 5253 5253 5252 5253 5254 5255 5256 5258 5260 5262 5264 5266 5268 5268 5268 5268 5267 5267 5267 5266 5266 5264 5263 5261 5259 5257 5255 5253 5253 5253 5254
Wind_Speed
74 69 68 71 76 74 78 83 82 82 83 85 89 92 92 92 89 81 73 70 65 60 54 51 50 49 49 49 49 49 50 52 54 56 59 62 65 68
72 71 77 84 79 77 85 84 84 85 85 87 89 91 88 81 77 73 70 66 59 51 48 46 44 43 43 44 43 42 41 40 40 42 45 46 47 50
64 70 80 76 75 81 85 84 84 86 88 88 90 87 84 73 69 70 68 60 53 48 45 41 40 38 39 39 39 38 38 37 36 36 37 40 41 44
78 78 77 77 78 88 84 85 86 88 90 90 85 80 74 69 67 68 64 57 51 46 41 39 37 35 34 34 35 34 34 33 33 34 36 38 41 43
72 77 80 80 87 89 86 85 88 90 90 88 81 74 68 66 66 66 60 53 48 44 40 37 35 34 32 32 31 30 30 31 32 33 34 35 37 39
74 79 81 86 90 87 87 88 90 89 86 82 76 69 65 64 65 65 55 50 46 42 39 35 35 36 31 29 29 28 29 29 29 29 31 33 35 37
77 80 85 85 85 86 88 89 91 88 82 76 70 65 63 64 65 63 52 47 42 40 37 34 36 36 33 26 25 27 28 28 28 30 32 33 34 35
79 81 82 83 85 87 89 90 89 82 77 71 67 65 64 65 64 58 49 44 39 38 35 31 35 34 34 31 27 26 26 26 27 31 33 35 36 37
79 81 83 85 88 89 91 91 86 78 71 70 70 68 66 65 61 54 46 41 37 34 34 30 34 32 33 33 29 27 26 26 27 31 33 36 38 37
79 82 84 86 90 93 92 91 82 76 73 72 70 66 63 59 55 48 42 38 34 33 33 29 33 31 32 33 31 28 26 25 27 31 34 35 34 33
81 83 85 88 92 93 89 84 79 76 76 72 67 61 56 52 48 43 38 35 32 31 32 30 31 32 30 35 31 27 24 24 26 31 32 31 31 32
81 84 89 92 91 87 85 82 78 71 71 68 61 52 50 46 42 38 36 33 31 29 31 29 31 32 28 30 33 27 23 24 25 29 27 28 29 30
86 89 92 92 88 81 79 76 71 65 64 60 51 45 43 41 37 33 32 30 29 27 29 29 29 30 30 27 29 27 24 24 26 26 24 24 27 30
90 91 90 85 79 74 73 68 60 55 52 47 40 34 37 35 33 31 30 28 27 26 26 27 27 29 28 26 26 24 22 23 22 22 21 22 23 21
91 89 84 77 72 70 65 55 47 49 45 39 43 42 41 35 32 30 28 28 27 27 25 26 26 27 28 26 23 21 20 22 19 18 18 15 13 8
89 84 77 71 67 62 51 47 46 45 43 39 39 40 38 36 31 30 27 28 27 27 26 26 25 24 25 25 21 19 18 18 15 13 15 11 9 10
85 78 72 67 58 51 48 43 43 44 39 36 37 38 37 32 28 28 27 28 26 26 26 26 24 22 22 23 21 17 17 15 15 13 10 10 9 10
78 73 68 59 52 48 44 42 41 41 37 35 36 34 30 28 26 26 27 27 25 24 24 24 24 22 20 19 20 17 15 15 13 13 11 12 11 14
73 67 62 52 48 46 44 42 39 38 36 35 31 27 25 24 24 24 25 25 23 23 22 22 22 20 19 18 17 16 14 14 13 13 12 14 14 19
69 63 56 49 46 44 43 41 37 36 35 34 28 24 23 23 23 23 23 22 21 21 20 20 19 18 17 17 16 15 13 13 13 12 12 15 17 21
63 59 53 48 45 43 42 40 38 36 33 31 25 23 22 22 22 22 21 20 20 20 19 19 17 16 15 15 14 15 12 12 12 12 12 14 18 21
61 57 50 46 43 42 39 38 39 36 32 29 24 23 23 23 22 21 20 19 19 19 18 17 16 15 14 14 13 13 13 12 11 11 11 12 15 19
60 56 49 43 40 39 38 36 36 34 31 27 25 23 23 22 22 21 20 19 19 18 16 15 15 14 14 14 13 13 13 12 11 10 10 10 13 17
Wind_Direction
307 304 300 303 308 306 308 310 310 309 309 311 312 312 312 313 314 312 311 310 307 302 297 293 290 287 284 280 276 271 267 263 260 257 255 254 253 251
305 302 299 306 307 304 309 310 309 309 310 312 312 312 314 315 313 314 313 311 308 302 297 294 290 286 284 283 281 277 272 266 260 255 253 252 250 248
299 295 300 303 303 306 309 308 309 311 311 312 312 314 315 314 312 314 315 311 308 303 299 296 291 289 289 287 283 279 274 269 264 259 254 252 250 248
297 301 299 298 299 309 309 309 310 311 312 313 314 316 314 313 313 316 315 311 308 305 302 296 295 294 292 287 280 275 270 267 264 262 260 259 256 251
304 303 299 298 302 308 308 309 311 312 312 313 314 314 312 311 313 317 314 310 308 305 302 299 299 300 297 294 288 276 270 268 267 264 264 262 259 256
302 301 298 300 303 306 308 311 311 311 311 312 312 311 310 310 314 316 311 309 306 304 301 301 302 302 302 297 288 278 274 271 270 271 269 265 262 258
302 300 299 302 304 306 309 310 310 310 311 310 309 308 308 310 313 314 308 306 304 302 300 303 302 304 304 299 288 280 278 279 278 274 272 267 263 262
301 301 302 303 305 308 308 308 308 309 309 308 306 306 307 308 310 310 304 303 301 299 299 301 299 303 305 304 296 285 281 279 277 274 272 272 270 267
303 303 303 305 307 307 307 306 307 306 306 304 304 305 304 305 306 304 300 299 297 296 296 298 298 303 305 303 299 292 288 285 281 278 280 279 277 271
306 306 307 307 307 306 305 305 305 305 304 302 303 303 302 302 302 298 295 294 294 293 292 296 296 302 306 302 299 295 290 288 285 286 287 284 279 272
308 307 307 307 306 305 305 304 304 304 301 301 302 302 300 299 296 293 291 290 290 290 289 294 296 301 306 303 301 296 293 289 291 292 288 283 278 273
309 309 308 306 306 305 304 303 303 302 299 300 299 299 298 296 292 289 287 286 288 288 288 290 293 297 302 304 302 298 294 291 297 291 286 284 281 275
312 311 308 306 306 304 303 302 302 298 297 298 299 298 294 292 288 283 281 282 285 288 288 289 292 298 302 308 303 300 299 303 301 294 293 288 285 283
311 310 308 308 306 305 303 302 299 296 296 295 297 295 294 290 286 282 278 277 282 287 290 292 295 298 301 309 306 302 302 307 301 297 293 292 292 292
310 310 310 309 307 307 305 301 298 297 292 289 286 291 300 291 283 280 275 275 280 284 288 293 296 297 301 308 311 306 307 312 307 301 297 292 286 280
311 311 310 309 307 307 303 300 298 296 290 285 283 288 294 288 279 277 272 272 279 285 287 291 294 295 299 306 315 306 311 314 302 292 289 275 254 215
312 311 310 308 305 302 300 298 299 297 292 285 286 289 288 280 274 272 268 270 278 284 287 290 291 295 298 306 318 307 310 313 291 287 269 248 227 215
313 313 311 307 302 301 298 297 297 294 290 285 285 285 278 271 268 267 264 267 275 282 286 287 289 295 297 306 318 309 309 311 289 277 256 230 219 197
314 313 311 305 301 299 297 296 294 290 287 286 285 277 270 265 266 263 259 264 272 281 284 284 286 290 293 306 319 309 303 307 296 271 254 225 217 207
315 313 309 303 299 296 295 294 288 282 279 279 276 268 263 261 262 259 256 262 272 279 280 283 283 285 288 302 317 316 295 300 296 276 255 231 222 214
313 312 307 300 296 293 291 288 283 280 281 279 274 265 259 258 256 252 254 262 273 276 279 279 278 279 283 296 311 321 301 294 302 288 264 242 229 218
313 310 305 299 294 290 285 278 276 275 275 275 269 259 254 253 248 245 251 260 271 275 278 275 276 275 278 290 301 316 318 296 300 300 277 251 236 226
313 310 305 299 293 287 280 271 270 269 269 267 260 251 248 245 239 241 249 258 267 272 272 272 276 277 277 283 294 307 318 312 294 299 293 259 242 229